This is the latest recevied weather packets stored in our database for station/object N1ICS-1. If no packets are shown the sender has not sent any weather packets the latest 10 day(s).
| Time | Temp. | Humidity | Pressure | Rain* | Wind** | Luminosity | Snow |
|---|---|---|---|---|---|---|---|
| 1777823704 | 14.44° C | 50% | 1018 hPa | 0 mm | - | 856 W/m² | - |
| 1777823401 | 14.44° C | 54% | 1017.9 hPa | 0 mm | - | 846 W/m² | - |
| 1777823102 | 14.44° C | 51% | 1018 hPa | 0 mm | - | 836 W/m² | - |
| 1777822802 | 13.89° C | 53% | 1017.9 hPa | 0 mm | - | 865 W/m² | - |
| 1777822502 | 13.89° C | 53% | 1018 hPa | 0 mm | - | 757 W/m² | - |
| 1777822202 | 14.44° C | 53% | 1018 hPa | 0 mm | - | 808 W/m² | - |
| 1777821901 | 13.33° C | 54% | 1018 hPa | 0 mm | - | 704 W/m² | - |
| 1777821602 | 13.89° C | 54% | 1018 hPa | 0 mm | - | 865 W/m² | - |
| 1777821302 | 14.44° C | 55% | 1018.1 hPa | 0 mm | - | 810 W/m² | - |
| 1777821002 | 13.89° C | 53% | 1018.1 hPa | 0 mm | - | 861 W/m² | - |
| 1777820701 | 13.89° C | 54% | 1018.2 hPa | 0 mm | - | 811 W/m² | - |
| 1777820402 | 13.33° C | 56% | 1018 hPa | 0 mm | - | 817 W/m² | - |
| 1777820102 | 13.33° C | 55% | 1018 hPa | 0 mm | - | 793 W/m² | - |
| 1777819802 | 13.33° C | 55% | 1018 hPa | 0 mm | - | 780 W/m² | - |
| 1777819501 | 12.78° C | 55% | 1018.1 hPa | 0 mm | - | 760 W/m² | - |
| 1777819202 | 12.22° C | 59% | 1018.2 hPa | 0 mm | - | 743 W/m² | - |
| 1777818902 | 12.78° C | 57% | 1018 hPa | 0 mm | - | 726 W/m² | - |
| 1777818602 | 12.22° C | 59% | 1018.1 hPa | 0 mm | - | 705 W/m² | - |
| 1777818301 | 12.22° C | 60% | 1018.3 hPa | 0 mm | - | 693 W/m² | - |
| 1777818002 | 12.22° C | 62% | 1018.3 hPa | 0 mm | - | 675 W/m² | - |
| 1777817702 | 11.67° C | 62% | 1018.4 hPa | 0 mm | - | 655 W/m² | - |
| 1777817402 | 11.67° C | 63% | 1018.2 hPa | 0 mm | - | 635 W/m² | - |
| 1777817102 | 11.11° C | 63% | 1018.4 hPa | 0 mm | - | 617 W/m² | - |
| 1777816802 | 11.11° C | 63% | 1018.3 hPa | 0 mm | - | 599 W/m² | - |
| 1777816502 | 11.11° C | 63% | 1018.3 hPa | 0 mm | - | 578 W/m² | - |
* Rain latest hour (hover to see other rain measurements)
** Current wind speed in m/s (hover to see current wind gust speed)